EW7356 Weather Reports


time (UTC)temp
F
wind
direction
speed
knots
gust
knots
rain 1hr
in
rain 24hr
in
rain mn
in
humidity
%
barometer
mb
20260506005029 62 180 0.9 3.5 0.00 0.01 0.01 74 1007.5
20260506004600 62 252 0.9 5.2 0.00 0.01 0.01 75 1007.4
20260506004030 62 0 1.7 5.2 0.00 0.01 0.01 75 1007.4
20260506003530 62 265 0.9 4.3 0.00 0.01 0.01 75 1007.3
20260506003051 62 255 1.7 5.2 0.00 0.01 0.01 76 1007.3
20260506002529 62 0 1.7 6.1 0.00 0.01 0.01 76 1007.3
20260506002030 62 248 1.7 6.1 0.00 0.01 0.01 76 1007.1
20260506001541 62 277 1.7 5.2 0.00 0.01 0.01 76 1007.2
20260506001030 62 265 0.9 3.5 0.00 0.01 0.01 77 1007.0
20260506000530 62 238 1.7 6.1 0.00 0.01 0.01 76 1007.1
20260506000040 62 266 1.7 6.1 0.00 0.01 0.01 76 1007.0
20260505235530 62 277 1.7 5.2 0.00 0.01 0.01 77 1007.0
20260505235030 62 242 0.9 7.0 0.00 0.01 0.01 76 1006.9
20260505234558 62 269 1.7 7.0 0.00 0.01 0.01 77 1006.8
20260505234032 62 293 2.6 7.0 0.00 0.01 0.01 77 1006.8
20260505233532 62 262 1.7 6.1 0.00 0.01 0.01 77 1006.8
20260505233041 62 264 2.6 6.1 0.00 0.01 0.01 78 1006.6
20260505232530 61 265 2.6 6.1 0.00 0.01 0.01 78 1006.6
20260505232032 61 271 3.5 7.0 0.00 0.01 0.01 78 1006.5
20260505231541 61 271 1.7 7.0 0.00 0.01 0.01 79 1006.4
20260505231030 61 255 2.6 6.1 0.00 0.01 0.01 79 1006.4
20260505230530 61 243 1.7 5.2 0.00 0.01 0.01 80 1006.0
20260505230043 61 296 0.9 6.1 0.00 0.01 0.01 79 1005.9
20260505225530 61 244 1.7 7.8 0.00 0.01 0.01 79 1006.0
20260505225036 61 271 4.3 8.7 0.01 0.01 0.01 78 1006.2
20260505224541 61 296 3.5 8.7 0.01 0.01 0.01 79 1006.2
20260505224030 62 279 3.5 7.0 0.01 0.01 0.01 79 1006.0
20260505223530 62 309 2.6 7.0 0.01 0.01 0.01 78 1005.8
20260505223044 62 268 2.6 6.1 0.01 0.01 0.01 77 1005.9
20260505222530 62 273 1.7 5.2 0.01 0.01 0.01 77 1005.5
20260505222032 63 263 0.9 3.5 0.01 0.01 0.01 79 1005.1
20260505221540 63 287 0.0 3.5 0.01 0.01 0.01 77 1004.7
20260505221029 63 284 0.9 3.5 0.01 0.01 0.01 78 1004.9
20260505220527 63 267 0.0 2.6 0.01 0.01 0.01 82 1004.7
20260505220055 63 194 0.9 3.5 0.01 0.01 0.01 76 1004.4
20260505215528 62 217 0.0 7.0 0.01 0.01 0.01 77 1004.4
20260505215027 62 301 1.7 7.0 0.00 0.00 0.00 77 1005.0
20260505214540 62 269 2.6 8.7 0.00 0.00 0.00 77 1005.5
20260505214027 62 272 4.3 13.9 0.00 0.00 0.00 75 1004.8
20260505213527 62 294 3.5 20.0 0.00 0.00 0.00 75 1004.9
20260505213041 64 309 7.8 20.0 0.00 0.00 0.00 72 1005.1
20260505212530 66 5 8.7 29.5 0.00 0.00 0.00 65 1005.0
20260505212028 70 280 8.7 29.5 0.00 0.00 0.00 52 1004.8
20260505211548 76 257 8.7 29.5 0.00 0.00 0.00 39 1004.6
20260505211032 76 170 9.6 20.9 0.00 0.00 0.00 36 1003.0
20260505210529 76 175 7.0 18.2 0.00 0.00 0.00 37 1002.9
20260505210041 76 232 7.8 18.2 0.00 0.00 0.00 38 1002.9
20260505205533 76 219 5.2 20.9 0.00 0.00 0.00 39 1002.7
20260505205034 76 296 7.8 25.2 0.00 0.00 0.00 39 1002.7
20260505204539 76 229 7.8 25.2 0.00 0.00 0.00 38 1002.6
20260505204030 76 282 7.8 25.2 0.00 0.00 0.00 38 1002.7
20260505203527 77 196 8.7 19.1 0.00 0.00 0.00 37 1002.8
20260505203039 77 221 7.0 15.6 0.00 0.00 0.00 37 1002.9
20260505202527 76 193 7.8 18.2 0.00 0.00 0.00 38 1002.9
20260505202030 76 245 6.1 19.1 0.00 0.00 0.00 37 1002.9
20260505201544 76 165 8.7 19.1 0.00 0.00 0.00 37 1002.8
20260505201030 76 267 7.8 19.1 0.00 0.00 0.00 37 1003.0
20260505200532 77 213 7.8 16.5 0.00 0.00 0.00 36 1002.9
20260505200041 77 208 7.8 19.1 0.00 0.00 0.00 37 1002.9
20260505195529 77 339 8.7 19.1 0.00 0.00 0.00 36 1002.9
20260505195029 79 177 7.8 20.0 0.00 0.00 0.00 35 1003.0
20260505194542 78 197 8.7 20.0 0.00 0.00 0.00 36 1003.0
20260505194031 79 170 7.8 27.8 0.00 0.00 0.00 35 1003.1
20260505193530 78 219 10.4 27.8 0.00 0.00 0.00 37 1003.1
20260505193045 77 258 7.8 19.1 0.00 0.00 0.00 35 1003.2
20260505192530 78 287 8.7 19.1 0.00 0.00 0.00 34 1003.2
20260505192033 78 205 7.8 20.0 0.00 0.00 0.00 34 1003.1
20260505191549 79 199 10.4 20.0 0.00 0.00 0.00 34 1003.0
20260505191032 79 244 7.8 16.5 0.00 0.00 0.00 34 1003.2
20260505190529 78 205 5.2 19.1 0.00 0.00 0.00 37 1003.4
20260505190035 78 164 7.0 19.1 0.00 0.00 0.00 37 1003.6
20260505185530 77 225 4.3 20.9 0.00 0.00 0.00 36 1003.5
20260505185032 77 237 7.8 20.9 0.00 0.00 0.00 35 1003.6
20260505184543 78 259 10.4 21.7 0.00 0.00 0.00 36 1003.5
20260505184029 78 213 10.4 21.7 0.00 0.00 0.00 35 1003.6
20260505183529 78 262 7.8 18.2 0.00 0.00 0.00 36 1003.7
20260505183041 77 240 8.7 17.4 0.00 0.00 0.00 37 1003.9
20260505182529 77 170 7.8 16.5 0.00 0.00 0.00 36 1004.0
20260505182029 76 253 7.8 24.3 0.00 0.00 0.00 38 1004.1
20260505181540 76 194 7.0 24.3 0.00 0.00 0.00 37 1004.1
20260505181029 76 181 9.6 24.3 0.00 0.00 0.00 37 1004.4
20260505180529 76 230 7.0 16.5 0.00 0.00 0.00 37 1004.3
20260505180054 76 232 7.8 16.5 0.00 0.00 0.00 37 1004.4
20260505175529 76 265 8.7 16.5 0.00 0.00 0.00 37 1004.6
20260505175033 77 250 7.8 17.4 0.00 0.00 0.00 36 1004.4
20260505174605 77 263 8.7 20.9 0.00 0.00 0.00 36 1004.5
20260505174028 77 207 7.0 21.7 0.00 0.00 0.00 37 1004.7
20260505173529 77 163 10.4 21.7 0.00 0.00 0.00 36 1004.6
20260505173044 77 135 7.0 26.9 0.00 0.00 0.00 38 1004.7
20260505172531 77 295 12.2 26.9 0.00 0.00 0.00 36 1004.8
20260505172029 77 248 7.8 17.4 0.00 0.00 0.00 39 1004.9
20260505171540 77 282 4.3 17.4 0.00 0.00 0.00 39 1004.8
20260505171028 76 224 7.0 17.4 0.00 0.00 0.00 39 1004.9
20260505170527 76 300 8.7 18.2 0.00 0.00 0.00 38 1005.0
20260505170050 76 261 8.7 22.6 0.00 0.00 0.00 37 1005.1
20260505165531 76 207 10.4 22.6 0.00 0.00 0.00 39 1005.1
20260505165030 76 221 6.1 16.5 0.00 0.00 0.00 40 1005.3
20260505164543 75 248 5.2 16.5 0.00 0.00 0.00 44 1005.2
20260505164030 75 180 7.8 16.5 0.00 0.00 0.00 41 1005.5
20260505163528 75 279 3.5 12.2 0.00 0.00 0.00 44 1005.6
20260505163043 75 193 7.0 13.9 0.00 0.00 0.00 43 1005.6
20260505162529 75 202 4.3 13.9 0.00 0.00 0.00 45 1005.7
20260505162027 74 291 4.3 15.6 0.00 0.00 0.00 43 1005.8
20260505161543 74 174 4.3 15.6 0.00 0.00 0.00 44 1005.8
20260505161032 73 306 6.1 15.6 0.00 0.00 0.00 45 1005.8
20260505160528 73 167 7.8 14.8 0.00 0.00 0.00 44 1005.9
20260505153053 72 348 7.0 15.6 0.00 0.00 0.00 47 1006.9
20260505152529 72 257 7.8 15.6 0.00 0.00 0.00 48 1006.9
20260505152027 71 223 6.1 17.4 0.00 0.00 0.00 49 1007.0
20260505151546 70 152 6.1 17.4 0.00 0.00 0.00 48 1006.9
20260505151029 70 182 7.8 15.6 0.00 0.00 0.00 47 1007.0
20260505150529 70 187 8.7 15.6 0.00 0.00 0.00 47 1007.0
20260505140530 67 177 4.3 17.4 0.00 0.00 0.00 54 1007.2
20260505125029 59 233 1.7 8.7 0.00 0.00 0.00 62 1007.1
20260505124542 59 198 3.5 9.6 0.00 0.00 0.00 61 1006.9
20260505124029 59 295 4.3 9.6 0.00 0.00 0.00 61 1006.9
20260505123530 59 180 4.3 8.7 0.00 0.00 0.00 60 1007.2
20260505123058 59 205 4.3 8.7 0.00 0.00 0.00 61 1006.9
20260505122529 59 209 3.5 8.7 0.00 0.00 0.00 60 1006.9
20260505122029 59 250 4.3 8.7 0.00 0.00 0.00 60 1006.8
20260505121546 60 274 4.3 10.4 0.00 0.00 0.00 58 1007.1
20260505121030 59 245 4.3 10.4 0.00 0.00 0.00 60 1007.0
20260505120532 59 281 5.2 9.6 0.00 0.00 0.00 60 1007.3
20260505120046 58 229 4.3 8.7 0.00 0.00 0.00 60 1007.1
20260505115529 58 223 5.2 8.7 0.00 0.00 0.00 60 1007.2
20260505115030 58 241 4.3 7.8 0.00 0.00 0.00 60 1007.2
20260505114610 58 259 2.6 6.1 0.00 0.00 0.00 61 1007.3
20260505114030 57 285 1.7 6.1 0.00 0.00 0.00 62 1007.3
20260505113527 57 270 1.7 7.0 0.00 0.00 0.00 62 1007.4
20260505113045 57 305 0.9 7.0 0.00 0.00 0.00 63 1007.4
20260505112529 56 275 3.5 7.0 0.00 0.00 0.00 64 1007.2
20260505112029 55 268 0.9 4.3 0.00 0.00 0.00 67 1007.1
20260505111606 54 0 0.0 4.3 0.00 0.00 0.00 69 1007.0
20260505111030 53 344 0.9 4.3 0.00 0.00 0.00 68 1006.8
20260505110529 53 0 0.0 0.0 0.00 0.00 0.00 70 1006.8
20260505102032 51 266 0.0 0.9 0.00 0.00 0.00 70 1006.8
20260505101536 51 266 0.0 0.9 0.00 0.00 0.00 69 1006.9
20260505101030 52 0 0.0 1.7 0.00 0.00 0.00 69 1006.7
20260505100530 52 0 0.0 1.7 0.00 0.00 0.00 68 1006.7
20260505100040 52 266 0.0 1.7 0.00 0.00 0.00 67 1006.8
20260505095532 53 266 0.0 2.6 0.00 0.00 0.00 66 1006.7
20260505095029 53 268 0.0 2.6 0.00 0.00 0.00 65 1006.8
20260505094545 53 223 0.9 3.5 0.00 0.00 0.00 65 1006.8
20260505094031 54 0 0.9 7.0 0.00 0.00 0.00 64 1006.8
20260505093529 54 259 0.9 7.0 0.00 0.00 0.00 64 1006.8
20260505093040 54 294 0.9 6.1 0.00 0.00 0.00 64 1006.9
20260505092530 54 0 1.7 6.1 0.00 0.00 0.00 64 1007.0
20260505092030 54 268 1.7 7.0 0.00 0.00 0.00 62 1006.9
20260505091542 55 266 2.6 8.7 0.00 0.00 0.00 62 1006.9
20260505091029 55 255 2.6 8.7 0.00 0.00 0.00 61 1007.0
20260505090530 55 250 4.3 8.7 0.00 0.00 0.00 60 1006.9
20260505090048 55 230 3.5 8.7 0.00 0.00 0.00 61 1006.9
20260505085530 55 239 3.5 8.7 0.00 0.00 0.00 61 1007.0
20260505085030 55 277 3.5 7.8 0.00 0.00 0.00 61 1007.1
20260505084538 55 292 2.6 7.8 0.00 0.00 0.00 60 1007.0
20260505084029 55 244 2.6 7.8 0.00 0.00 0.00 60 1006.9
20260505083529 55 265 2.6 7.8 0.00 0.00 0.00 60 1006.9
20260505083046 55 240 3.5 8.7 0.00 0.00 0.00 60 1007.0
20260505082529 55 271 2.6 8.7 0.00 0.00 0.00 61 1007.0
20260505082031 55 256 2.6 6.1 0.00 0.00 0.00 61 1007.2
20260505081548 55 257 1.7 7.0 0.00 0.00 0.00 61 1007.0
20260505081030 55 283 1.7 7.0 0.00 0.00 0.00 61 1007.0
20260505080529 55 276 1.7 7.0 0.00 0.00 0.00 61 1007.0
20260505080042 55 301 1.7 3.5 0.00 0.00 0.00 60 1007.2
20260505075529 55 309 0.9 4.3 0.00 0.00 0.00 59 1007.2
20260505075029 56 323 0.9 7.8 0.00 0.00 0.00 59 1007.1
20260505074543 56 290 0.9 7.8 0.00 0.00 0.00 59 1007.2
20260505074030 56 251 2.6 9.6 0.00 0.00 0.00 59 1007.2
20260505073530 56 219 2.6 9.6 0.00 0.00 0.00 58 1007.1
20260505073040 56 269 3.5 9.6 0.00 0.00 0.00 58 1007.2
20260505072532 56 209 2.6 8.7 0.00 0.00 0.00 59 1007.2
20260505072032 56 236 2.6 8.7 0.00 0.00 0.00 58 1007.3
20260505071543 56 219 3.5 8.7 0.00 0.00 0.00 58 1007.2
20260505071029 55 296 2.6 9.6 0.00 0.00 0.00 60 1007.3
20260505070530 55 166 4.3 9.6 0.00 0.00 0.00 60 1007.2
20260505070050 54 217 1.7 6.1 0.00 0.00 0.00 61 1007.3
20260505065530 55 177 1.7 6.1 0.00 0.00 0.00 61 1007.3
20260505065029 55 280 0.0 6.1 0.00 0.00 0.00 61 1007.3
20260505064555 55 0 1.7 6.1 0.00 0.00 0.00 61 1007.3
20260505064029 55 217 2.6 6.1 0.00 0.00 0.00 61 1007.5
20260505063529 54 261 1.7 6.1 0.00 0.00 0.00 62 1007.5
20260505063046 54 244 2.6 6.1 0.00 0.00 0.00 63 1007.5
20260505062530 53 234 0.0 1.7 0.00 0.00 0.00 64 1007.5
20260505062030 54 236 0.0 1.7 0.00 0.00 0.00 64 1007.6
20260505061550 54 230 0.0 2.6 0.00 0.00 0.00 63 1007.6
20260505061031 54 0 0.9 2.6 0.00 0.00 0.00 62 1007.6
20260505060529 54 296 0.0 6.1 0.00 0.00 0.00 62 1007.7
20260505060046 54 0 0.9 6.1 0.00 0.00 0.00 62 1007.7
20260505055529 54 178 0.9 4.3 0.00 0.00 0.00 62 1007.6
20260505055030 54 206 1.7 4.3 0.00 0.00 0.00 62 1007.6
20260505054553 54 274 0.9 6.1 0.00 0.00 0.00 62 1007.5
20260505054030 55 219 1.7 6.1 0.00 0.00 0.00 61 1007.6
20260505053529 55 224 1.7 6.1 0.00 0.00 0.00 61 1007.7
20260505053042 55 309 1.7 7.0 0.00 0.00 0.00 60 1007.7
20260505052529 55 213 0.9 7.0 0.00 0.00 0.00 60 1007.7
20260505052029 55 257 2.6 5.2 0.00 0.00 0.00 60 1007.8
20260505051535 55 264 1.7 7.0 0.00 0.00 0.00 59 1007.7
20260505051029 56 246 2.6 7.0 0.00 0.00 0.00 59 1007.7
20260505050533 56 229 2.6 7.0 0.00 0.00 0.00 59 1007.7
20260505041548 56 250 0.9 3.5 0.00 0.00 0.00 57 1007.4
20260505041029 56 0 0.0 2.6 0.00 0.00 0.00 56 1007.4
20260505040529 56 0 0.0 2.6 0.00 0.00 0.00 55 1007.4
20260505040039 57 317 1.7 2.6 0.00 0.00 0.00 54 1007.3
20260505035529 57 0 0.0 3.5 0.00 0.00 0.00 53 1007.3
20260505035029 58 0 0.0 9.6 0.00 0.00 0.00 52 1007.2
20260505034542 58 275 0.9 9.6 0.00 0.00 0.00 52 1007.2
20260505034029 58 264 2.6 9.6 0.00 0.00 0.00 52 1007.2
20260505033531 58 215 2.6 9.6 0.00 0.00 0.00 52 1007.1
20260505033039 58 207 1.7 11.3 0.00 0.00 0.00 52 1007.1
20260505032529 58 232 2.6 11.3 0.00 0.00 0.00 51 1007.1
20260505032033 58 285 4.3 7.8 0.00 0.00 0.00 51 1007.1
20260505031538 58 286 1.7 9.6 0.00 0.00 0.00 51 1007.1
20260505031029 59 210 4.3 10.4 0.00 0.00 0.00 51 1007.0
20260505030530 59 207 3.5 11.3 0.00 0.00 0.00 50 1007.0
20260505030040 59 206 4.3 11.3 0.00 0.00 0.00 49 1006.9
20260505025530 59 205 2.6 13.9 0.00 0.00 0.00 48 1007.0
20260505025029 60 181 3.5 13.9 0.00 0.00 0.00 47 1007.1
20260505024544 60 188 3.5 11.3 0.00 0.00 0.00 46 1007.1
20260505024030 60 218 2.6 9.6 0.00 0.00 0.00 45 1007.0
20260505023530 60 224 3.5 10.4 0.00 0.00 0.00 45 1007.0
20260505023047 60 155 4.3 10.4 0.00 0.00 0.00 45 1007.0
20260505022532 61 222 3.5 10.4 0.00 0.00 0.00 44 1007.0
20260505022031 61 194 2.6 10.4 0.00 0.00 0.00 43 1007.0
20260505021545 61 148 2.6 8.7 0.00 0.00 0.00 43 1007.0
20260505021030 61 232 2.6 12.2 0.00 0.00 0.00 43 1006.9
20260505020529 61 259 5.2 12.2 0.00 0.00 0.00 44 1006.8
20260505020040 61 234 3.5 8.7 0.00 0.00 0.00 44 1006.8
20260505015530 61 178 2.6 8.7 0.00 0.00 0.00 45 1006.9
20260505015033 61 259 3.5 8.7 0.00 0.00 0.00 44 1006.8
20260505014543 60 187 2.6 10.4 0.00 0.00 0.00 45 1006.9
20260505014030 60 203 2.6 11.3 0.00 0.00 0.00 45 1006.9
20260505013532 60 236 3.5 11.3 0.00 0.00 0.00 46 1006.9
20260505013034 60 234 1.7 9.6 0.00 0.00 0.00 45 1006.8
20260505012530 60 229 2.6 9.6 0.00 0.00 0.00 45 1006.8
20260505012030 60 240 1.7 8.7 0.00 0.00 0.00 46 1006.8
20260505011543 60 211 2.6 8.7 0.00 0.00 0.00 46 1006.8
20260505011029 60 251 1.7 7.0 0.00 0.00 0.00 47 1006.8
20260505010529 60 189 1.7 7.0 0.00 0.00 0.00 47 1006.8
20260505010043 59 273 2.6 7.0 0.00 0.00 0.00 47 1006.7
20260505005530 59 241 0.9 4.3 0.00 0.00 0.00 47 1006.7